Overview Statistics Trail Chart Weather Telemetry Raw packets
 

This is the latest recevied weather packets stored in our database for station/object SP5MRF. If no packets are shown the sender has not sent any weather packets the latest 10 day(s).

<< 33 34 35 36 37 38 39 >>
Time Temp. Humidity Pressure Rain* Wind** Luminosity Snow
1788250613 20.56° C 70% 1011 hPa 0 mm - - -
1788250132 20.56° C 70% 1010.8 hPa 0 mm - - -
1788249652 20.56° C 71% 1010.7 hPa 0 mm - - -
1788249172 20.56° C 71% 1010.4 hPa 0 mm - - -
1788248693 20.56° C 74% 1010.6 hPa 0 mm - - -
1788248212 20° C 76% 1010.2 hPa 0 mm - - -
1788247734 18.89° C 77% 1010.3 hPa 0 mm - - -
1788247252 18.89° C 78% 1010.3 hPa 0 mm - - -
1788246772 18.33° C 79% 1010.3 hPa 0 mm - - -
1788246292 17.78° C 80% 1010.2 hPa 0 mm - - -
1788245812 17.78° C 81% 1010.2 hPa 0 mm - - -
1788245333 17.78° C 83% 1010.1 hPa 0 mm - - -
1788244852 17.22° C 83% 1010.2 hPa 0 mm - - -
1788244372 17.22° C 84% 1010.2 hPa 0 mm - - -
1788243893 16.67° C 85% 1010.2 hPa 0.51 mm - - -
1788243412 16.67° C 86% 1010.1 hPa 0.51 mm - - -
1788242932 16.67° C 88% 1010.1 hPa 0.51 mm - - -
1788241972 16.11° C 90% 1010.1 hPa 0.51 mm - - -
1788241012 15.56° C 91% 1009.8 hPa 0.51 mm - - -
1788240532 15.56° C 91% 1009.9 hPa 0.51 mm - - -
1788240052 15.56° C 91% 1009.8 hPa 0 mm - - -
1788239581 15.56° C 91% 1009.5 hPa 0 mm - - -
1788239092 15.56° C 91% 1009.7 hPa 0 mm - - -
1788238612 15.56° C 91% 1009.6 hPa 0 mm - - -
1788238132 15.56° C 91% 1009.4 hPa 0 mm - - -

* Rain latest hour (hover to see other rain measurements)
** Current wind speed in m/s (hover to see current wind gust speed)